Millinocket, ME

12:55 AM EDT on September 27, 2016 (GMT -0400)
Millinocket Municipal

Weather History for KMLT - February, 2013

Change the Weather History Date:

Wednesday, February 20, 2013

  Actual Average Record
Temperature  
Mean Temperature 32 °F 20 °F  
Max Temperature 39 °F 30 °F 56 °F (1981)
Min Temperature 25 °F 10 °F -24 °F (1967)
Degree Days  
Heating Degree Days 33 45  
Month to date heating degree days 905 960  
Since 1 July heating degree days 5284 5706  
Cooling Degree Days 0 0  
Month to date cooling degree days 0 0  
Year to date cooling degree days 0 0  
Moisture  
Dew Point 28 °F    
Average Humidity 78    
Maximum Humidity 92    
Minimum Humidity 63    
Precipitation  
Precipitation 0.73 in 0.09 in 1.09 in (1972)
Month to date precipitation 1.50 1.41  
Year to date precipitation 2.84 4.34  
Sea Level Pressure  
Sea Level Pressure 29.46 in    
Wind  
Wind Speed 9 mph (West)    
Max Wind Speed 15 mph    
Max Gust Speed 33 mph    
Visibility 6 miles    
Events Fog , Rain , Snow    
T = Trace of Precipitation, MM = Missing Value Source: NWS Daily Summary

Daily Weather History Graph

Daily Weather History Graph

Search for Another Location

Airport or City:

Trip Planner

Search our weather history database for the weather conditions in past years. The results will help you decide how hot, cold, wet, or windy it might be!

Date:

Astronomy

Feb. 20, 2013 Rise Set
Actual Time 6:28 AM EST 5:09 PM EST
Civil Twilight 5:58 AM EST 5:39 PM EST
Nautical Twilight 5:23 AM EST 6:14 PM EST
Astronomical Twilight 4:49 AM EST 6:48 PM EST
Moon 12:18 PM EST (2/20) 2:55 AM EST (2/20)
Length of Visible Light 11h 41m
Length of Day
10h 40m
Waxing Gibbous, 76% of the Moon is Illuminated
Feb 20
Waxing Gibbous
Feb 25
Full
Mar 4
Last Quarter
Mar 11
New
Mar 19
First Quarter

Hourly Weather History & Observations

Time (EST) Temp. Windchill Dew Point Humidity Pressure Visibility Wind Dir Wind Speed Gust Speed Precip Events Conditions
12:53 AM 33.1 °F 26.9 °F 30.0 °F 89% 29.71 in 7.0 mi East 6.9 mph - 0.01 in Rain Light Rain
1:00 AM 33.8 °F 28.6 °F 30.2 °F 87% 29.68 in 7.0 mi East 5.8 mph - 0.00 in Rain Light Freezing Rain
1:14 AM 33.8 °F 27.7 °F 30.2 °F 87% 29.67 in 5.0 mi East 6.9 mph - 0.02 in Rain Light Freezing Rain
1:38 AM 33.8 °F 27.7 °F 32.0 °F 93% 29.66 in 5.0 mi ESE 6.9 mph - 0.05 in Rain Light Rain
1:53 AM 35.1 °F 27.4 °F 33.1 °F 92% 29.66 in 5.0 mi ESE 10.4 mph - 0.07 in Rain Light Rain
2:29 AM 35.6 °F 27.5 °F 33.8 °F 93% 29.59 in 6.0 mi ESE 11.5 mph - 0.04 in Rain Light Rain
2:53 AM 37.0 °F 29.8 °F 34.0 °F 89% 29.60 in 5.0 mi ESE 10.4 mph - 0.08 in Rain Rain
3:53 AM 37.9 °F 29.2 °F 35.1 °F 89% 29.51 in 5.0 mi ESE 15.0 mph 21.9 mph 0.12 in Rain Rain
4:12 AM 37.4 °F 28.5 °F 35.6 °F 93% 29.46 in 5.0 mi East 15.0 mph 24.2 mph 0.03 in Rain Rain
4:44 AM 37.4 °F 28.9 °F 35.6 °F 93% 29.42 in 6.0 mi East 13.8 mph 20.7 mph 0.08 in Rain Light Rain
4:53 AM 37.9 °F 30.5 °F 36.0 °F 93% 29.45 in 6.0 mi ESE 11.5 mph - 0.10 in Rain Rain
5:53 AM 37.9 °F 30.0 °F 36.0 °F 93% 29.39 in 5.0 mi ESE 12.7 mph 29.9 mph 0.12 in Rain Rain
6:53 AM 39.0 °F 33.4 °F 36.0 °F 89% 29.37 in 5.0 mi SE 8.1 mph 23.0 mph 0.10 in Rain Rain
7:27 AM 37.4 °F 31.4 °F 35.6 °F 93% 29.32 in 5.0 mi ESE 8.1 mph - 0.05 in Rain Light Rain
7:35 AM 37.4 °F 32.8 °F 35.6 °F 93% 29.32 in 6.0 mi SE 5.8 mph - 0.05 in Rain Light Rain
8:02 AM 35.6 °F 27.5 °F 32.0 °F 87% 29.34 in 1.8 mi West 11.5 mph 21.9 mph 0.04 in Rain Heavy Rain
8:09 AM 33.8 °F 25.3 °F 30.2 °F 87% 29.35 in 0.8 mi West 11.5 mph 20.7 mph 0.05 in Snow Light Snow
8:20 AM 33.8 °F 23.2 °F 30.2 °F 87% 29.34 in 0.5 mi WNW 17.3 mph 28.8 mph 0.06 in Fog , Snow Snow
8:29 AM 32.0 °F 22.1 °F 30.2 °F 93% 29.34 in 0.2 mi WNW 13.8 mph 26.5 mph 0.07 in Fog , Snow Snow
8:44 AM 32.0 °F 23.0 °F 30.2 °F 93% 29.36 in 0.5 mi WNW 11.5 mph 29.9 mph 0.07 in Fog , Snow Snow
8:53 AM 32.0 °F 21.6 °F 28.9 °F 88% 29.38 in 1.0 mi WNW 15.0 mph 23.0 mph 0.07 in Snow Light Snow
9:02 AM 32.0 °F 24.2 °F 30.2 °F 93% 29.36 in 1.5 mi West 9.2 mph 21.9 mph 0.00 in Snow Light Snow
9:05 AM 32.0 °F 22.1 °F 28.4 °F 87% 29.36 in 1.8 mi WNW 13.8 mph 23.0 mph 0.00 in Snow Light Snow
9:07 AM 32.0 °F 22.5 °F 28.4 °F 87% 29.36 in 2.0 mi West 12.7 mph 23.0 mph 0.00 in Snow Light Snow
9:09 AM 32.0 °F 21.6 °F 28.4 °F 87% 29.36 in 2.5 mi WNW 15.0 mph 24.2 mph 0.00 in Snow Light Snow
9:53 AM 32.0 °F 22.5 °F 26.1 °F 79% 29.42 in 10.0 mi West 12.7 mph 23.0 mph 0.00 in   Overcast
10:53 AM 33.1 °F 24.4 °F 26.1 °F 75% 29.43 in 10.0 mi West 11.5 mph 21.9 mph N/A   Overcast
11:49 AM 32.0 °F 24.8 °F 24.8 °F 75% 29.40 in 4.0 mi West 8.1 mph 16.1 mph 0.00 in Snow Light Snow
11:53 AM 32.0 °F 24.2 °F 25.0 °F 75% 29.43 in 5.0 mi West 9.2 mph - 0.00 in Snow Light Snow
12:53 PM 33.1 °F 28.7 °F 25.0 °F 72% 29.44 in 10.0 mi Variable 4.6 mph - 0.00 in   Overcast
1:12 PM 33.8 °F 27.0 °F 24.8 °F 70% 29.41 in 10.0 mi West 8.1 mph - N/A   Overcast
1:53 PM 32.0 °F 24.2 °F 23.0 °F 69% 29.44 in 10.0 mi West 9.2 mph 20.7 mph N/A   Overcast
2:53 PM 32.0 °F 21.6 °F 21.9 °F 66% 29.44 in 10.0 mi WNW 15.0 mph 25.3 mph N/A   Overcast
3:31 PM 32.0 °F 23.0 °F 21.2 °F 64% 29.42 in 10.0 mi West 11.5 mph 20.7 mph N/A   Overcast
6:23 PM 28.4 °F 20.4 °F 21.2 °F 74% 29.49 in 10.0 mi West 8.1 mph - N/A   Overcast
6:53 PM 28.9 °F 21.1 °F 21.0 °F 72% 29.52 in 10.0 mi West 8.1 mph - N/A   Overcast
7:03 PM 28.4 °F 22.2 °F 21.2 °F 74% 29.50 in 10.0 mi West 5.8 mph - N/A   Overcast
7:40 PM 28.4 °F 19.7 °F 19.4 °F 69% 29.50 in 10.0 mi West 9.2 mph - N/A   Overcast
7:53 PM 28.0 °F 20.8 °F 19.0 °F 69% 29.53 in 7.0 mi Variable 6.9 mph - N/A   Overcast
8:42 PM 26.6 °F 18.2 °F 17.6 °F 69% 29.50 in 10.0 mi West 8.1 mph - N/A   Partly Cloudy
8:53 PM 26.1 °F 18.4 °F 18.0 °F 71% 29.53 in 10.0 mi West 6.9 mph - N/A   Clear
9:53 PM 25.0 °F 18.1 °F 18.0 °F 75% 29.53 in 10.0 mi West 5.8 mph - N/A   Mostly Cloudy
10:53 PM 25.0 °F 18.1 °F 18.0 °F 75% 29.54 in 10.0 mi West 5.8 mph - N/A   Overcast
11:53 PM 25.0 °F 18.1 °F 18.0 °F 75% 29.55 in 10.0 mi West 5.8 mph - N/A   Scattered Clouds